STARLINK-11180, 60185

Orbit data source: Space-Track

STARLINK-11180, 60185 is a payload satellite owned by SpaceX/Seattle (US) in LEO that was launched on Wed, 03 Jul 2024 UTC via an FALCON 9 launch vehicle from the Air Force Eastern Test Range (AFETR). Payload-class satellites include a variety of spacecraft equipped with specific instruments for various scientific and technological missions. These include communications satellites like Starlink; space stations such as the ISS; scientific satellites like the Hubble; Earth observation satellites from companies like Planet Labs, Umbra, and HawkEye 360; GPS; miniature CubeSats for education and research; and military/defense satellites.

Loading next visibility...
Identifier
60185, 2024-124C
Orbit
LEO
Country
Flag of USUS
Related business
Manufacturer
SpaceX/Seattle
Mission
Operational Commercial Communications
Bus & Motor
STARLINK V2MD, Unknown motor
Mass
960 kg wet, ~910 kg dry
Launch date (UTC)
2024-07-03 (1 year ago)
Launch vehicle
FALCON 9
Launch site
Air Force Eastern Test Range (AFETR)
Object type
Payload
Rocket body
Debris
Shape & HBR
Box + 2 Pan, 14.5 m
Radar Cross Section
36.964 m², Large (>1 m²)

Expand to show TLE details & history
Last TLE update: 23 hours ago

TLE from 23 hours ago
0 STARLINK-11180
1 60185U 24124C   25257.43329839  .00000574  00000-0  96008-5 0  9999
2 60185  53.1583 309.9454 0001166  76.9057 283.2091 15.69705017 68852
Epoch: 2025-09-14T10:23Z
TLE epoch observation values (Epoch: 2025-09-14T10:23:56.98Z)
Latitude
-0.00004°
Longitude
160.30558°
Altitude
360.476 km
Speed
7.694 km/s
True Right ascension
20h 39m 46s
True Declination
0° 00' 00"
Sunlit
Object was in full shadow at epoch
Visualization orbit readout
Latitude
Unknown
Longitude
Unknown
Altitude
Unknown
Speed
Unknown
Apparent Right ascension
Unknown
Apparent Declination
Unknown
Sunlit
N/A
Visualization observer readout
Local Sidereal Time
02:05:13
Azimuth
Unknown
Elevation
Unknown
Doppler factor
Unknown
Orbital elements
Apogee altitude
360.788 km
Perigee altitude
359.216 km
Semi-major axis
6,738.139 km
Eccentricity
0.00012
Inclination
53.1583°
RAAN
309.9454°
Arg. of periapsis
76.9057°
True anomaly
283.19609°
Mean anomaly
283.2091°
Eccentric anomaly
283.2026°
Mean motion
3.92404 °/min
Orbital period
91.74 mins
BSTAR
0.0000096008
Loading maneuver chart data...
Computing Atmospheric mass density...
Loading historical data...
Loading historical data...
Loading historical data...
Loading historical data...
Loading historical data...
Loading historical data...
Loading historical data...

Documentation

Showing up to 5 results
|